Terug naar catalogus

THORAD DELTA 1 DEB

ActiefLEO
NORAD 42605·DEBRIS·🇺🇸 United States

Gelanceerd Nov 15, 1974 vanaf Vandenberg Space Force Base

Loading…

Volgende Passages (komende 24 uur)

TLE

VerouderdSource: Space-Track

Epoch: Aug 18, 2026, 02:57 UTC

1 42605U 74089FW  26230.12351118  .00000124  00000-0  13730-2 0  9993
2 42605 101.5115 170.5664 0127007  95.7265 265.8291 12.29213707464251

Volg THORAD DELTA 1 DEB in realtime met AllMySat

Download on the App Store